EW5589 Weather Reports


time (UTC)temp
C
wind
direction
speed
KPH
gust
KPH
rain 1hr
cm
rain 24hr
cm
rain mn
cm
humidity
%
barometer
mb
20260906210056 21 68 1.6 6.4 0.00 0.00 0.00 75 1018.9
20260906204552 20 72 8.0 12.9 0.00 0.00 0.00 74 1018.8
20260906203033 21 75 8.0 14.5 0.00 0.00 0.00 74 1018.7
20260906201532 21 62 3.2 12.9 0.00 0.00 0.00 77 1018.8
20260906200014 21 72 4.8 14.5 0.00 0.00 0.00 75 1018.9
20260906194512 21 69 6.4 12.9 0.00 0.00 0.00 76 1018.9
20260906193057 21 32 1.6 11.3 0.00 0.00 0.00 76 1019.0
20260906191553 20 79 9.7 16.1 0.00 0.00 0.00 75 1019.1
20260906190036 20 70 8.0 19.3 0.00 0.00 0.00 77 1019.0
20260906184534 20 69 11.3 19.3 0.00 0.00 0.00 76 1019.1
20260906183028 20 86 6.4 20.9 0.00 0.00 0.00 75 1019.1
20260906181521 20 61 4.8 14.5 0.00 0.00 0.00 76 1019.1
20260906180019 20 56 1.6 17.7 0.00 0.00 0.00 79 1019.1
20260906174523 20 38 3.2 11.3 0.00 0.00 0.00 77 1019.2
20260906173018 20 68 6.4 14.5 0.00 0.00 0.00 77 1019.3
20260906171518 20 70 11.3 19.3 0.00 0.00 0.00 77 1019.3
20260906170025 21 68 3.2 14.5 0.00 0.00 0.00 78 1019.2
20260906164515 21 108 8.0 20.9 0.00 0.00 0.00 78 1019.1
20260906163058 21 359 4.8 16.1 0.00 0.00 0.00 78 1019.1
20260906161556 20 98 8.0 19.3 0.00 0.00 0.00 79 1019.1
20260906160044 20 90 6.4 19.3 0.00 0.00 0.00 79 1019.2
20260906154546 20 60 6.4 12.9 0.00 0.00 0.00 80 1019.0
20260906153028 20 60 8.0 19.3 0.00 0.00 0.00 81 1018.9
20260906151523 21 10 6.4 17.7 0.00 0.00 0.00 80 1018.8
20260906150030 21 51 6.4 17.7 0.00 0.00 0.00 78 1018.8
20260906144526 20 75 8.0 16.1 0.00 0.00 0.00 79 1018.7
20260906143018 20 92 4.8 14.5 0.00 0.00 0.00 80 1018.9
20260906141519 20 54 4.8 16.1 0.00 0.00 0.00 80 1018.6
20260906140020 21 304 6.4 14.5 0.00 0.00 0.00 78 1018.3
20260906134533 20 1 4.8 14.5 0.00 0.00 0.00 83 1018.2
20260906133008 19 56 4.8 16.1 0.00 0.00 0.00 84 1018.1
20260906131507 20 48 6.4 17.7 0.00 0.00 0.00 85 1018.1
20260906130048 19 79 4.8 14.5 0.00 0.00 0.00 85 1017.9
20260906124546 20 68 3.2 12.9 0.00 0.00 0.00 85 1017.8
20260906123031 20 20 0.0 1.6 0.00 0.00 0.00 85 1017.7
20260906121528 20 25 0.0 1.6 0.00 0.00 0.00 87 1017.6
20260906120005 20 24 0.0 1.6 0.00 0.00 0.00 90 1017.4
20260906114508 19 20 0.0 1.6 0.00 0.00 0.00 91 1017.1
20260906113050 19 15 0.0 0.0 0.00 0.00 0.00 91 1017.0
20260906111544 19 13 0.0 0.0 0.00 0.00 0.00 91 1016.8
20260906110031 18 13 0.0 0.0 0.00 0.00 0.00 91 1016.7
20260906104533 19 16 0.0 0.0 0.00 0.00 0.00 90 1016.6
20260906103003 19 16 0.0 0.0 0.00 0.00 0.00 90 1016.4
20260906101502 19 5 0.0 0.0 0.00 0.00 0.00 90 1016.2
20260906100043 19 4 0.0 0.0 0.00 0.00 0.00 89 1016.0
20260906094540 19 1 0.0 0.0 0.00 0.00 0.00 89 1015.9
20260906093021 19 5 0.0 0.0 0.00 0.00 0.00 89 1015.8
20260906091520 19 360 0.0 0.0 0.00 0.00 0.00 89 1015.5
20260906090001 19 360 0.0 0.0 0.00 0.00 0.00 88 1015.5
20260906084558 19 4 0.0 0.0 0.00 0.00 0.00 88 1015.3
20260906083058 19 4 0.0 0.0 0.00 0.00 0.00 87 1015.1
20260906081538 20 1 0.0 0.0 0.00 0.00 0.00 86 1015.0
20260906080039 20 4 0.0 0.0 0.00 0.00 0.00 86 1015.0
20260906074520 20 1 0.0 0.0 0.00 0.00 0.00 86 1015.0
20260906073022 20 359 0.0 0.0 0.00 0.00 0.00 86 1014.9
20260906071600 20 6 0.0 0.0 0.00 0.00 0.00 85 1014.9
20260906070100 20 7 0.0 0.0 0.00 0.00 0.00 84 1014.9
20260906064541 20 7 0.0 0.0 0.00 0.00 0.00 83 1014.9
20260906063041 20 8 0.0 0.0 0.00 0.00 0.00 83 1015.0
20260906061523 20 7 0.0 0.0 0.00 0.00 0.00 84 1015.0
20260906060022 20 4 0.0 0.0 0.00 0.00 0.00 84 1015.0
20260906054504 20 6 0.0 0.0 0.00 0.00 0.00 85 1015.0
20260906053004 20 4 0.0 0.0 0.00 0.00 0.00 85 1015.0
20260906051553 20 9 0.0 0.0 0.00 0.00 0.00 85 1014.9
20260906050112 20 3 0.0 0.0 0.00 0.00 0.00 85 1015.0
20260906044550 20 1 0.0 0.0 0.00 0.00 0.00 87 1014.9
20260906043050 20 1 0.0 0.0 0.00 0.00 0.00 89 1014.8
20260906041548 19 4 0.0 0.0 0.00 0.00 0.00 93 1014.8
20260906040048 18 8 0.0 0.0 0.00 0.00 0.00 93 1014.7
20260906034546 18 8 0.0 0.0 0.00 0.00 0.00 92 1014.7
20260906033055 18 8 0.0 0.0 0.00 0.00 0.00 92 1014.6
20260906031531 18 8 0.0 0.0 0.00 0.00 0.00 90 1014.6
20260906030025 18 8 0.0 0.0 0.00 0.00 0.00 90 1014.5
20260906024507 19 8 0.0 0.0 0.00 0.00 0.00 89 1014.5
20260906023017 19 8 0.0 0.0 0.00 0.00 0.00 89 1014.4
20260906021552 19 8 0.0 0.0 0.00 0.00 0.00 88 1014.4
20260906020053 19 8 0.0 0.0 0.00 0.00 0.00 88 1014.4
20260906014541 19 8 0.0 0.0 0.00 0.00 0.00 87 1014.2
20260906013031 20 8 0.0 0.0 0.00 0.00 0.00 87 1014.1
20260906011520 20 8 0.0 0.0 0.00 0.00 0.00 86 1014.1
20260906010018 20 9 0.0 0.0 0.00 0.00 0.00 85 1014.2
20260906004517 20 9 0.0 0.0 0.00 0.00 0.00 85 1014.1
20260906003017 20 9 0.0 0.0 0.00 0.00 0.00 84 1013.9
20260906001516 20 9 0.0 0.0 0.00 0.00 0.00 84 1014.0
20260906000016 21 12 0.0 0.0 0.00 0.00 0.00 83 1014.0
20260905234515 21 12 0.0 0.0 0.00 0.00 0.00 82 1014.0
20260905233017 21 12 0.0 0.0 0.00 0.00 0.00 80 1014.0
20260905231515 22 12 0.0 0.0 0.00 0.00 0.00 79 1014.1
20260905230014 22 12 0.0 0.0 0.00 0.00 0.00 76 1014.0
20260905224512 23 12 0.0 4.8 0.00 0.00 0.00 71 1014.1
20260905223011 24 28 0.0 6.4 0.00 0.00 0.00 71 1014.1
20260905221513 24 29 0.0 4.8 0.00 0.00 0.00 71 1014.1
20260905220009 24 313 0.0 6.4 0.00 0.00 0.00 71 1013.9
20260905214508 25 359 0.0 4.8 0.00 0.00 0.00 70 1013.7
20260905213006 24 313 0.0 4.8 0.00 0.00 0.00 71 1013.8
20260905211506 24 320 1.6 6.4 0.00 0.00 0.00 71 1013.7